STARLINK-5176, 54053

Orbit data source: Space-Track

STARLINK-5176, 54053 is a payload satellite owned by SpaceX/Seattle (US) in LEO that was launched on Thu, 20 Oct 2022 UTC via an FALCON 9 launch vehicle from the Air Force Eastern Test Range (AFETR). Payload-class satellites include a variety of spacecraft equipped with specific instruments for various scientific and technological missions. These include communications satellites like Starlink; space stations such as the ISS; scientific satellites like the Hubble; Earth observation satellites from companies like Planet Labs, Umbra, and HawkEye 360; GPS; miniature CubeSats for education and research; and military/defense satellites.

Loading next visibility...
Identifier
54053, 2022-136C
Orbit
LEO
Country
Flag of USUS
Related business
Manufacturer
SpaceX/Seattle
Mission
Operational spacecraft
Bus & Motor
STARLINK, Unknown motor
Mass
305 kg wet, ~290 kg dry
Launch date (UTC)
2022-10-20 (3 years ago)
Launch vehicle
FALCON 9
Launch site
Air Force Eastern Test Range (AFETR)
Object type
Payload
Rocket body
Debris
Shape & HBR
Unknown shape, 10.1 m
Radar Cross Section
Large (>1 m²)

Expand to show TLE details & history
Last TLE update: 20 hours ago

TLE from 20 hours ago
0 STARLINK-5176
1 54053U 22136C   25304.00882749 -.00000073  00000-0  13507-4 0  9994
2 54053  53.2162 206.4873 0001414  90.4769 269.6385 15.08843293167267
Epoch: 2025-10-31T00:12Z
TLE epoch observation values (Epoch: 2025-10-31T00:12:42.695Z)
Latitude
-0.00002°
Longitude
163.74997°
Altitude
540.637 km
Speed
7.593 km/s
True Right ascension
13h 45m 56s
True Declination
0° 00' 00"
Sunlit
Object was in daylight at epoch
Visualization orbit readout
Latitude
Unknown
Longitude
Unknown
Altitude
Unknown
Speed
Unknown
Apparent Right ascension
Unknown
Apparent Declination
Unknown
Sunlit
N/A
Visualization observer readout
Local Sidereal Time
15:28:59
Azimuth
Unknown
Elevation
Unknown
Doppler factor
Unknown
Orbital elements
Apogee altitude
540.957 km
Perigee altitude
539 km
Semi-major axis
6,918.115 km
Eccentricity
0.00014
Inclination
53.2162°
RAAN
206.4873°
Arg. of periapsis
90.4769°
True anomaly
269.6223°
Mean anomaly
269.6385°
Eccentric anomaly
269.6304°
Mean motion
3.77191 °/min
Orbital period
95.44 mins
BSTAR
0.000013507
Loading maneuver chart data...
Computing Atmospheric mass density...
Loading historical data...
Loading historical data...
Loading historical data...
Loading historical data...
Loading historical data...
Loading historical data...
Loading historical data...

Documentation

Showing up to 5 results
|